Location: Cactus School
(34.5700°N, 118.0931°W)
Time: 02:41:13
(UTC-07:00)

Courier 1B - Pass Details

Date: 22 April 2024
Orbit: 962 x 1208 km, 28.3° (Epoch: 23 May)

Event Time Altitude Azimuth Distance (km) Brightness Sun altitude
Exits shadow 04:45:09 25° 248° (WSW) 2,013 8.5 -17.3°
Maximum altitude 04:49:02 49° 188° (S) 1,337 8.0 -16.6°
Drops below altitude 10° 04:55:33 10° 115° (ESE) 2,793 10.4 -15.4°
Sets 04:58:15 0° 110° (ESE) 3,713 11.2 -14.9°
